Weather History for SBAT - May, 2012

Change the Weather History Date:

Sunday, May 6, 2012

  Actual Average Record
Temperature  
Mean Temperature 80 °F -  
Max Temperature 90 °F - - ()
Min Temperature 69 °F - - ()
Cooling Degree Days 14    
Growing Degree Days 30 (Base 50)    
Moisture  
Dew Point 67 °F    
Average Humidity 62    
Maximum Humidity 83    
Minimum Humidity 30    
Precipitation  
Precipitation 0.00 in - - ()
Sea Level Pressure  
Sea Level Pressure 29.92 in    
Wind  
Wind Speed 4 mph ()    
Max Wind Speed 8 mph    
Max Gust Speed -    
Visibility 7.8 miles    
Events      
T = Trace of Precipitation, MM = Missing Value Source: Averaged Metar Reports

Daily Weather History Graph

Daily Weather History Graph

Search for Another Location

Airport or City:

Trip Planner

Search our weather history database for the weather conditions in past years. The results will help you decide how hot, cold, wet, or windy it might be!

Date:

Astronomy

May. 06, 2012 Rise Set
Actual Time 5:49 AM AMT 5:32 PM AMT
Civil Twilight 5:27 AM AMT 5:54 PM AMT
Nautical Twilight 5:02 AM AMT 6:19 PM AMT
Astronomical Twilight 4:37 AM AMT 6:44 PM AMT
Moon 6:11 PM AMT (5/6) 6:08 AM AMT (5/6)
Length of Visible Light 12h 26m
Length of Day
11h 43m
Full, 100% of the Moon is Illuminated
May 6
Full
May 12
Last Quarter
May 20
New
May 28
First Quarter
Jun 4
Full

Hourly Weather History & Observations

Time (AMT) Temp. Heat Index Dew Point Humidity Pressure Visibility Wind Dir Wind Speed Gust Speed Precip Events Conditions
7:00 AM 73.4 °F - 68.0 °F 83% 29.95 in - SSW 2.3 mph - N/A   Clear
8:00 AM 79 °F - 71 °F 71% 29.94 in 12 mi SSE 4.6 mph - -   Scattered Clouds
8:00 AM 78.8 °F - 71.6 °F 78% 29.98 in - SSE 4.6 mph - N/A   Clear
9:00 AM 82.4 °F 86.3 °F 69.8 °F 66% 29.98 in - ESE 6.9 mph - N/A   Clear
10:00 AM 87.8 °F 93.8 °F 71.6 °F 58% 29.98 in - South 6.9 mph - N/A   Clear
11:00 AM 87.8 °F 91.4 °F 68.0 °F 52% 29.95 in 6.2 mi SE 2.3 mph - N/A   Partly Cloudy
12:00 PM 87.8 °F 90.4 °F 66.2 °F 49% 29.95 in 6.2 mi ESE 6.9 mph - N/A   Partly Cloudy
1:00 PM 89.6 °F 90.1 °F 62.6 °F 40% 29.92 in 6.2 mi South 6.9 mph - N/A   Scattered Clouds
2:00 PM 90 °F - 63 °F 30% 29.86 in 12 mi SSE 8.1 mph - -   Partly Cloudy
2:00 PM 89.6 °F 90.1 °F 62.6 °F 40% 29.89 in 6.2 mi SSE 8.1 mph - N/A   Scattered Clouds
3:00 PM 91.4 °F 93.2 °F 64.4 °F 41% 29.86 in 6.2 mi South 4.6 mph - N/A   Scattered Clouds
4:00 PM 89.6 °F 91.1 °F 64.4 °F 43% 29.86 in 6.2 mi South 6.9 mph - N/A   Scattered Clouds
5:00 PM 86.0 °F 88.2 °F 66.2 °F 51% 29.86 in 6.2 mi South 4.6 mph - N/A   Partly Cloudy
6:00 PM 80.6 °F 84.6 °F 71.6 °F 74% 29.89 in - South 4.6 mph - N/A   Clear
7:00 PM 78.8 °F - 66.2 °F 65% 29.89 in 6.2 mi South 6.9 mph - N/A   Partly Cloudy
8:00 PM 75 °F - 68 °F 72% 29.88 in 12 mi South 4.6 mph - -  
8:00 PM 75.2 °F - 68.0 °F 78% 29.92 in - South 4.6 mph - N/A   Clear
9:00 PM 75.2 °F - 69.8 °F 83% 29.92 in - SSE 4.6 mph - N/A   Clear
10:00 PM 73.4 °F - 68.0 °F 83% 29.95 in - SSE 4.6 mph - N/A   Clear
11:00 PM 71.6 °F - 66.2 °F 83% 29.95 in - South 4.6 mph - N/A   Clear